User: anonymous   Login
Location: Spradlin Observatory
(33.4706°N, 86.3221°W)
Time: 19:14:13
(UTC-05:00)
Language:

COSMOS 2406 - Orbit

View from above orbital plane
View from above orbital plane
View from above satellite
View from above satellite

Ground track
Ground track

The orbit data is extracted from the following two-line orbital elements,

1 28352U 04021A   17289.28074685 -.00000226 +00000-0 -98125-4 0  9995
2 28352 071.0019 231.8552 0015538 278.0600 081.8758 14.11623380687895
Epoch (UTC): 16 October 2017 06:44:16
Eccentricity: 0.0015538
inclination: 71.0019°
perigee height: 842 km
apogee height: 865 km
right ascension of ascending node: 231.8552°
argument of perigee: 278.0600°
revolutions per day: 14.11623380
mean anomaly at epoch: 81.8758°
orbit number at epoch: 68789

The dashed part of the orbit path shows where the satellite is in the earth's shadow,  

DLR